,,,PA_Meas_PMT16A,,PR_Meas_QMR101_102,,RH_Meas_QMH101,,SR_Meas_QMS101,,TA_Meas_QMH101,,GenWind,,GenWind,
date,time,status,PA,status,PR,status,RH,status,SR,status,TA,status,DirAvg,status,SpdAvg,
2012-05-21, 00:00:04,VALID,998.916,VALID,0,VALID,92.3031,VALID,0,VALID,23.2915,VALID,34,VALID,0.258594,
2012-05-21, 00:01:04,VALID,998.925,VALID,0,VALID,92.3413,VALID,0,VALID,23.2702,VALID,34,VALID,0.249609,
2012-05-21, 00:02:04,VALID,998.904,VALID,0,VALID,92.2421,VALID,0,VALID,23.2915,VALID,34,VALID,0.217969,
2012-05-21, 00:03:04,VALID,998.885,VALID,0,VALID,92.1124,VALID,0,VALID,23.2897,VALID,34,VALID,0.28125,
2012-05-21, 00:04:04,VALID,998.85,VALID,0,VALID,92.0132,VALID,0,VALID,23.3092,VALID,34,VALID,0.354688,
2012-05-21, 00:05:04,VALID,998.831,VALID,0,VALID,91.9827,VALID,0,VALID,23.3305,VALID,34,VALID,0.525781,
2012-05-21, 00:06:04,VALID,998.806,VALID,0,VALID,91.8835,VALID,0,VALID,23.3305,VALID,34,VALID,0.951563,
2012-05-21, 00:07:04,VALID,998.806,VALID,0,VALID,91.7309,VALID,0,VALID,23.3287,VALID,64,VALID,1.27227,
2012-05-21, 00:08:04,VALID,998.775,VALID,0,VALID,91.7996,VALID,0,VALID,23.3482,VALID,62,VALID,1.84414,
2012-05-21, 00:09:04,VALID,998.727,VALID,0,VALID,91.3647,VALID,0,VALID,23.3677,VALID,50,VALID,1.72539,
2012-05-21, 00:10:04,VALID,998.722,VALID,0,VALID,91.2426,VALID,0,VALID,23.389,VALID,50,VALID,0.689453,
2012-05-21, 00:11:04,VALID,998.764,VALID,0,VALID,91.3494,VALID,0,VALID,23.35,VALID,50,VALID,0.298047,
2012-05-21, 00:12:04,VALID,998.738,VALID,0,VALID,91.5631,VALID,0,VALID,23.3287,VALID,50,VALID,0.222656,
2012-05-21, 00:13:04,VALID,998.676,VALID,0,VALID,91.7538,VALID,0,VALID,23.311,VALID,49,VALID,0.480469,
2012-05-21, 00:14:04,VALID,998.637,VALID,0,VALID,91.9751,VALID,0,VALID,23.2915,VALID,356,VALID,1.09141,
2012-05-21, 00:15:04,VALID,998.634,VALID,0,VALID,92.1353,VALID,0,VALID,23.2329,VALID,360,VALID,1.36836,
2012-05-21, 00:16:04,VALID,998.611,VALID,0,VALID,92.2421,VALID,0,VALID,23.2329,VALID,347,VALID,1.07344,
2012-05-21, 00:17:04,VALID,998.6,VALID,0,VALID,92.3413,VALID,0,VALID,23.1921,VALID,342,VALID,0.394531,
2012-05-21, 00:18:04,VALID,998.567,VALID,0,VALID,92.4405,VALID,0,VALID,23.1921,VALID,343,VALID,0.610937,
2012-05-21, 00:19:04,VALID,998.578,VALID,0,VALID,92.1429,VALID,0,VALID,23.1531,VALID,348,VALID,0.728125,
2012-05-21, 00:20:04,VALID,998.579,VALID,0,VALID,91.9903,VALID,0,VALID,23.1921,VALID,348,VALID,0.388672,
2012-05-21, 00:21:04,VALID,998.588,VALID,0,VALID,91.8225,VALID,0,VALID,23.1726,VALID,348,VALID,0.517969,
2012-05-21, 00:22:04,VALID,998.575,VALID,0,VALID,91.6699,VALID,0,VALID,23.1939,VALID,348,VALID,0.582031,
2012-05-21, 00:23:04,VALID,998.558,VALID,0,VALID,91.5478,VALID,0,VALID,23.1939,VALID,348,VALID,0.426172,
2012-05-21, 00:24:04,VALID,998.551,VALID,0,VALID,91.3342,VALID,0,VALID,23.2134,VALID,348,VALID,0.358203,
2012-05-21, 00:25:04,VALID,998.552,VALID,0,VALID,91.1206,VALID,0,VALID,23.2134,VALID,348,VALID,0.550781,
2012-05-21, 00:26:04,VALID,998.52,VALID,0,VALID,90.9985,VALID,0,VALID,23.2117,VALID,348,VALID,0.420312,
2012-05-21, 00:27:04,VALID,998.474,VALID,0,VALID,90.9985,VALID,0,VALID,23.2329,VALID,348,VALID,0.360547,
2012-05-21, 00:28:04,VALID,998.462,VALID,0,VALID,90.9909,VALID,0,VALID,23.2329,VALID,348,VALID,0.342969,
2012-05-21, 00:29:04,VALID,998.419,VALID,0,VALID,90.9374,VALID,0,VALID,23.2329,VALID,348,VALID,0.622266,
2012-05-21, 00:30:04,VALID,998.395,VALID,0,VALID,90.7925,VALID,0,VALID,23.2117,VALID,359,VALID,0.786328,
2012-05-21, 00:31:04,VALID,998.387,VALID,0,VALID,90.5788,VALID,0.104696,VALID,23.2524,VALID,1,VALID,0.446875,
2012-05-21, 00:32:04,VALID,998.376,VALID,0,VALID,90.3042,VALID,0,VALID,23.2117,VALID,4,VALID,0.611719,
2012-05-21, 00:33:04,VALID,998.354,VALID,0,VALID,90.4186,VALID,0,VALID,23.2117,VALID,29,VALID,0.783594,
2012-05-21, 00:34:04,VALID,998.345,VALID,0,VALID,90.6628,VALID,0,VALID,23.2134,VALID,46,VALID,0.649609,
2012-05-21, 00:35:04,VALID,998.34,VALID,0,VALID,90.9527,VALID,0,VALID,23.1921,VALID,46,VALID,0.632813,
2012-05-21, 00:36:04,VALID,998.376,VALID,0,VALID,91.1358,VALID,0,VALID,23.1921,VALID,75,VALID,0.671875,
2012-05-21, 00:37:04,VALID,998.347,VALID,0,VALID,91.2121,VALID,0,VALID,23.1744,VALID,76,VALID,1.07891,
2012-05-21, 00:38:04,VALID,998.331,VALID,0,VALID,91.2655,VALID,0,VALID,23.1531,VALID,80,VALID,1.11953,
2012-05-21, 00:39:04,VALID,998.324,VALID,0,VALID,91.2655,VALID,0,VALID,23.1744,VALID,82,VALID,1.07305,
2012-05-21, 00:40:04,VALID,998.349,VALID,0,VALID,91.0977,VALID,0,VALID,23.1531,VALID,101,VALID,0.982813,
2012-05-21, 00:41:04,VALID,998.297,VALID,0,VALID,91.0671,VALID,0.104696,VALID,23.1336,VALID,107,VALID,0.802344,
2012-05-21, 00:42:04,VALID,998.289,VALID,0,VALID,91.2274,VALID,0,VALID,23.1354,VALID,107,VALID,0.860937,
2012-05-21, 00:43:04,VALID,998.3,VALID,0,VALID,91.174,VALID,0,VALID,23.0946,VALID,104,VALID,0.857031,
2012-05-21, 00:44:04,VALID,998.275,VALID,0,VALID,90.8077,VALID,0,VALID,23.1336,VALID,103,VALID,0.571875,
2012-05-21, 00:45:04,VALID,998.237,VALID,0,VALID,90.6246,VALID,0,VALID,23.1744,VALID,103,VALID,0.301562,
2012-05-21, 00:46:04,VALID,998.249,VALID,0,VALID,90.6857,VALID,0,VALID,23.1336,VALID,103,VALID,0.139844,
2012-05-21, 00:47:04,VALID,998.274,VALID,0,VALID,90.8688,VALID,0,VALID,23.1141,VALID,103,VALID,0.267969,
2012-05-21, 00:48:04,VALID,998.249,VALID,0,VALID,90.9374,VALID,0,VALID,23.1354,VALID,103,VALID,0.0382813,
2012-05-21, 00:49:04,VALID,998.259,VALID,0,VALID,91.0519,VALID,0.104696,VALID,23.1159,VALID,103,VALID,0.462891,
2012-05-21, 00:50:04,VALID,998.283,VALID,0,VALID,91.2579,VALID,0,VALID,23.1159,VALID,103,VALID,0.237109,
2012-05-21, 00:51:04,VALID,998.284,VALID,0,VALID,91.296,VALID,0,VALID,23.0946,VALID,103,VALID,0.262891,
2012-05-21, 00:52:04,VALID,998.285,VALID,0,VALID,91.4715,VALID,0,VALID,23.0751,VALID,102,VALID,0.552344,
2012-05-21, 00:53:04,VALID,998.289,VALID,0,VALID,91.4563,VALID,0,VALID,23.0573,VALID,50,VALID,1.00039,
2012-05-21, 00:54:04,VALID,998.289,VALID,0,VALID,91.441,VALID,0,VALID,23.0378,VALID,45,VALID,0.91875,
2012-05-21, 00:55:04,VALID,998.266,VALID,0,VALID,90.9069,VALID,0,VALID,23.0378,VALID,45,VALID,0.821875,
2012-05-21, 00:56:04,VALID,998.257,VALID,0,VALID,90.7543,VALID,0,VALID,23.0573,VALID,43,VALID,0.805469,
2012-05-21, 00:57:04,VALID,998.304,VALID,0,VALID,90.7162,VALID,0,VALID,23.0183,VALID,43,VALID,0.591797,
2012-05-21, 00:58:04,VALID,998.275,VALID,0,VALID,90.7543,VALID,0.104696,VALID,22.9581,VALID,43,VALID,0.5875,
2012-05-21, 00:59:04,VALID,998.261,VALID,0,VALID,91.4105,VALID,0,VALID,22.9385,VALID,62,VALID,1.36133,
2012-05-21, 01:00:04,VALID,998.237,VALID,0,VALID,91.9827,VALID,0,VALID,22.919,VALID,61,VALID,1.03789,
2012-05-21, 01:01:04,VALID,998.22,VALID,0,VALID,91.998,VALID,0,VALID,22.9013,VALID,59,VALID,0.992969,
2012-05-21, 01:02:04,VALID,998.184,VALID,0,VALID,91.8606,VALID,0,VALID,22.88,VALID,50,VALID,1.21563,
2012-05-21, 01:03:04,VALID,998.189,VALID,0,VALID,91.7309,VALID,0,VALID,22.8623,VALID,41,VALID,1.26133,
2012-05-21, 01:04:04,VALID,998.194,VALID,0,VALID,91.7309,VALID,0,VALID,22.8427,VALID,34,VALID,0.860547,
2012-05-21, 01:05:04,VALID,998.202,VALID,0,VALID,91.8606,VALID,0,VALID,22.802,VALID,24,VALID,0.595312,
2012-05-21, 01:06:04,VALID,998.159,VALID,0,VALID,92.0743,VALID,0,VALID,22.7842,VALID,350,VALID,0.988672,
2012-05-21, 01:07:04,VALID,998.2,VALID,0,VALID,92.0361,VALID,0,VALID,22.8037,VALID,5,VALID,0.874219,
2012-05-21, 01:08:04,VALID,998.196,VALID,0,VALID,92.0056,VALID,0,VALID,22.7842,VALID,18,VALID,0.991016,
2012-05-21, 01:09:04,VALID,998.183,VALID,0,VALID,91.9674,VALID,0,VALID,22.7842,VALID,26,VALID,0.986328,
2012-05-21, 01:10:04,VALID,998.179,VALID,0,VALID,92.0819,VALID,0,VALID,22.7452,VALID,21,VALID,0.950781,
2012-05-21, 01:11:04,VALID,998.18,VALID,0,VALID,92.1963,VALID,0,VALID,22.685,VALID,18,VALID,0.53125,
2012-05-21, 01:12:04,VALID,998.217,VALID,0,VALID,92.3642,VALID,0,VALID,22.6672,VALID,18,VALID,0.437891,
2012-05-21, 01:13:04,VALID,998.191,VALID,0,VALID,92.4863,VALID,0,VALID,22.6655,VALID,18,VALID,0.456641,
2012-05-21, 01:14:04,VALID,998.203,VALID,0,VALID,92.4252,VALID,0,VALID,22.6867,VALID,18,VALID,0.455859,
2012-05-21, 01:15:04,VALID,998.214,VALID,0,VALID,92.2879,VALID,0,VALID,22.6655,VALID,18,VALID,0.368359,
2012-05-21, 01:16:04,VALID,998.191,VALID,0,VALID,92.204,VALID,0,VALID,22.6867,VALID,18,VALID,0.434766,
2012-05-21, 01:17:04,VALID,998.244,VALID,0,VALID,92.1048,VALID,0,VALID,22.6672,VALID,18,VALID,0.457031,
2012-05-21, 01:18:04,VALID,998.197,VALID,0,VALID,92.0285,VALID,0,VALID,22.6672,VALID,18,VALID,0.128516,
2012-05-21, 01:19:04,VALID,998.227,VALID,0,VALID,92.0437,VALID,0,VALID,22.6477,VALID,18,VALID,0.189844,
2012-05-21, 01:20:04,VALID,998.165,VALID,0,VALID,92.1811,VALID,0,VALID,22.6087,VALID,40,VALID,0.632813,
2012-05-21, 01:21:04,VALID,998.16,VALID,0,VALID,92.326,VALID,0,VALID,22.5679,VALID,40,VALID,0.660547,
2012-05-21, 01:22:04,VALID,998.149,VALID,0,VALID,92.4786,VALID,0,VALID,22.6087,VALID,40,VALID,0.85625,
2012-05-21, 01:23:04,VALID,998.121,VALID,0,VALID,92.532,VALID,0,VALID,22.6069,VALID,40,VALID,0.684766,
2012-05-21, 01:24:04,VALID,998.137,VALID,0,VALID,92.4863,VALID,0,VALID,22.6477,VALID,40,VALID,0.55625,
2012-05-21, 01:25:04,VALID,998.06,VALID,0,VALID,92.471,VALID,0,VALID,22.6477,VALID,40,VALID,0.405078,
2012-05-21, 01:26:04,VALID,998.038,VALID,0,VALID,92.4405,VALID,0,VALID,22.6477,VALID,40,VALID,0.151172,
2012-05-21, 01:27:04,VALID,998.008,VALID,0,VALID,92.5168,VALID,0,VALID,22.6069,VALID,40,VALID,0.487891,
2012-05-21, 01:28:04,VALID,997.974,VALID,0,VALID,92.4939,VALID,0,VALID,22.6282,VALID,40,VALID,0.753125,
2012-05-21, 01:29:04,VALID,997.977,VALID,0,VALID,92.2726,VALID,0,VALID,22.6264,VALID,40,VALID,0.635938,
2012-05-21, 01:30:04,VALID,997.968,VALID,0,VALID,92.3718,VALID,0,VALID,22.646,VALID,37,VALID,0.7875,
2012-05-21, 01:31:04,VALID,997.959,VALID,0,VALID,92.6083,VALID,0,VALID,22.646,VALID,31,VALID,0.944531,
2012-05-21, 01:32:04,VALID,997.979,VALID,0,VALID,92.8677,VALID,0,VALID,22.646,VALID,31,VALID,0.65,
2012-05-21, 01:33:04,VALID,997.968,VALID,0,VALID,93.0737,VALID,0,VALID,22.6477,VALID,31,VALID,0.522656,
2012-05-21, 01:34:04,VALID,997.971,VALID,0,VALID,93.2111,VALID,0.104696,VALID,22.5874,VALID,43,VALID,0.601953,
2012-05-21, 01:35:04,VALID,997.99,VALID,0,VALID,93.2721,VALID,0.104696,VALID,22.5484,VALID,70,VALID,1.22539,
2012-05-21, 01:36:04,VALID,997.959,VALID,0,VALID,93.3637,VALID,0.104696,VALID,22.5484,VALID,70,VALID,1.01289,
2012-05-21, 01:37:04,VALID,997.961,VALID,0,VALID,93.15,VALID,0,VALID,22.5094,VALID,67,VALID,0.751172,
2012-05-21, 01:38:04,VALID,997.996,VALID,0,VALID,92.9593,VALID,0,VALID,22.5094,VALID,67,VALID,0.508203,
2012-05-21, 01:39:04,VALID,997.99,VALID,0,VALID,92.8601,VALID,0,VALID,22.4916,VALID,67,VALID,0.235156,
2012-05-21, 01:40:04,VALID,997.984,VALID,0,VALID,92.8143,VALID,0,VALID,22.4721,VALID,67,VALID,0.239453,
2012-05-21, 01:41:04,VALID,997.974,VALID,0,VALID,92.8143,VALID,0,VALID,22.4526,VALID,67,VALID,0.432031,
2012-05-21, 01:42:04,VALID,997.964,VALID,0,VALID,92.8067,VALID,0,VALID,22.4526,VALID,67,VALID,0.230859,
2012-05-21, 01:43:04,VALID,997.952,VALID,0,VALID,92.7685,VALID,0,VALID,22.3924,VALID,67,VALID,0.503125,
2012-05-21, 01:44:04,VALID,997.968,VALID,0,VALID,92.7991,VALID,0,VALID,22.4119,VALID,67,VALID,0.362891,
2012-05-21, 01:45:04,VALID,997.979,VALID,0,VALID,92.822,VALID,0,VALID,22.4119,VALID,68,VALID,0.510547,
2012-05-21, 01:46:04,VALID,997.962,VALID,0,VALID,92.8906,VALID,0,VALID,22.4526,VALID,91,VALID,0.687109,
2012-05-21, 01:47:04,VALID,997.94,VALID,0,VALID,92.8677,VALID,0,VALID,22.4916,VALID,93,VALID,0.499609,
2012-05-21, 01:48:04,VALID,997.963,VALID,0,VALID,92.6846,VALID,0,VALID,22.4899,VALID,93,VALID,0.360938,
2012-05-21, 01:49:04,VALID,997.94,VALID,0,VALID,92.5854,VALID,0,VALID,22.4899,VALID,93,VALID,0.332812,
2012-05-21, 01:50:04,VALID,997.932,VALID,0,VALID,92.6007,VALID,0.104696,VALID,22.5094,VALID,93,VALID,0,
2012-05-21, 01:51:04,VALID,997.948,VALID,0,VALID,92.5854,VALID,0,VALID,22.4899,VALID,93,VALID,0,
2012-05-21, 01:52:04,VALID,997.93,VALID,0,VALID,92.5015,VALID,0,VALID,22.4509,VALID,93,VALID,0,
2012-05-21, 01:53:04,VALID,997.901,VALID,0,VALID,92.677,VALID,0,VALID,22.4721,VALID,93,VALID,0,
2012-05-21, 01:54:04,VALID,997.871,VALID,0,VALID,92.9135,VALID,0.104696,VALID,22.4704,VALID,93,VALID,0,
2012-05-21, 01:55:04,VALID,997.86,VALID,0,VALID,93.0585,VALID,0,VALID,22.4916,VALID,93,VALID,0.127734,
2012-05-21, 01:56:04,VALID,997.861,VALID,0,VALID,93.1119,VALID,0,VALID,22.4899,VALID,93,VALID,0.405078,
2012-05-21, 01:57:04,VALID,997.824,VALID,0,VALID,93.0737,VALID,0.104696,VALID,22.5111,VALID,93,VALID,0.432422,
2012-05-21, 01:58:04,VALID,997.831,VALID,0,VALID,92.9898,VALID,0,VALID,22.4899,VALID,95,VALID,0.745313,
2012-05-21, 01:59:04,VALID,997.797,VALID,0,VALID,92.9898,VALID,0,VALID,22.5306,VALID,93,VALID,0.778125,
2012-05-21, 02:00:04,VALID,997.806,VALID,0,VALID,93.1043,VALID,0.104696,VALID,22.5289,VALID,93,VALID,0.478906,
2012-05-21, 02:01:04,VALID,997.811,VALID,0,VALID,93.1271,VALID,0,VALID,22.5501,VALID,73,VALID,0.692187,
2012-05-21, 02:02:04,VALID,997.806,VALID,0,VALID,92.8983,VALID,0,VALID,22.5094,VALID,29,VALID,0.748828,
2012-05-21, 02:03:04,VALID,997.761,VALID,0,VALID,92.8983,VALID,0,VALID,22.4916,VALID,360,VALID,1.075,
2012-05-21, 02:04:04,VALID,997.798,VALID,0,VALID,92.9669,VALID,0,VALID,22.4933,VALID,345,VALID,0.783203,
2012-05-21, 02:05:04,VALID,997.831,VALID,0,VALID,92.9822,VALID,0,VALID,22.4916,VALID,350,VALID,0.748047,
2012-05-21, 02:06:04,VALID,997.791,VALID,0,VALID,93.0432,VALID,0,VALID,22.4721,VALID,20,VALID,0.992188,
2012-05-21, 02:07:04,VALID,997.769,VALID,0,VALID,93.0051,VALID,0,VALID,22.4331,VALID,26,VALID,1.15742,
2012-05-21, 02:08:04,VALID,997.741,VALID,0,VALID,92.9517,VALID,0,VALID,22.4136,VALID,30,VALID,1.18672,
2012-05-21, 02:09:04,VALID,997.693,VALID,0,VALID,92.9593,VALID,0,VALID,22.4153,VALID,33,VALID,1.57773,
2012-05-21, 02:10:04,VALID,997.675,VALID,0,VALID,92.8372,VALID,0,VALID,22.3746,VALID,27,VALID,1.53477,
2012-05-21, 02:11:04,VALID,997.708,VALID,0,VALID,92.7228,VALID,0,VALID,22.3763,VALID,27,VALID,1.36445,
2012-05-21, 02:12:04,VALID,997.721,VALID,0,VALID,92.6923,VALID,0,VALID,22.3568,VALID,16,VALID,0.906641,
2012-05-21, 02:13:04,VALID,997.712,VALID,0,VALID,92.8372,VALID,0,VALID,22.3161,VALID,5,VALID,1.17656,
2012-05-21, 02:14:04,VALID,997.714,VALID,0,VALID,93.1424,VALID,0,VALID,22.3373,VALID,352,VALID,1.08281,
2012-05-21, 02:15:04,VALID,997.737,VALID,0,VALID,93.3408,VALID,0,VALID,22.3373,VALID,354,VALID,0.795703,
2012-05-21, 02:16:04,VALID,997.709,VALID,0,VALID,93.4705,VALID,0,VALID,22.3356,VALID,352,VALID,0.749609,
2012-05-21, 02:17:04,VALID,997.725,VALID,0,VALID,93.4476,VALID,0,VALID,22.3568,VALID,353,VALID,0.864453,
2012-05-21, 02:18:04,VALID,997.706,VALID,0,VALID,93.3179,VALID,0,VALID,22.3941,VALID,354,VALID,0.652344,
2012-05-21, 02:19:04,VALID,997.689,VALID,0,VALID,93.1195,VALID,0,VALID,22.3729,VALID,354,VALID,0.544922,
2012-05-21, 02:20:04,VALID,997.694,VALID,0,VALID,92.8372,VALID,0,VALID,22.3924,VALID,5,VALID,0.821875,
2012-05-21, 02:21:04,VALID,997.695,VALID,0,VALID,92.6007,VALID,0,VALID,22.4331,VALID,2,VALID,0.363281,
2012-05-21, 02:22:04,VALID,997.703,VALID,0,VALID,92.4481,VALID,0.104696,VALID,22.4526,VALID,2,VALID,0.707812,
2012-05-21, 02:23:04,VALID,997.697,VALID,0,VALID,92.4176,VALID,0,VALID,22.4509,VALID,2,VALID,0.698828,
2012-05-21, 02:24:04,VALID,997.651,VALID,0,VALID,92.3871,VALID,0,VALID,22.4331,VALID,2,VALID,0.566797,
2012-05-21, 02:25:04,VALID,997.628,VALID,0,VALID,92.3184,VALID,0,VALID,22.4526,VALID,2,VALID,0.490234,
2012-05-21, 02:26:04,VALID,997.625,VALID,0,VALID,92.2726,VALID,0,VALID,22.4136,VALID,2,VALID,0.506641,
2012-05-21, 02:27:04,VALID,997.62,VALID,0,VALID,92.3031,VALID,0,VALID,22.3941,VALID,2,VALID,0.4875,
2012-05-21, 02:28:04,VALID,997.602,VALID,0,VALID,92.3031,VALID,0,VALID,22.3729,VALID,2,VALID,0.643359,
2012-05-21, 02:29:04,VALID,997.599,VALID,0,VALID,92.3031,VALID,0,VALID,22.3729,VALID,3,VALID,0.738281,
2012-05-21, 02:30:04,VALID,997.611,VALID,0,VALID,92.1429,VALID,0.104696,VALID,22.3534,VALID,7,VALID,0.742578,
2012-05-21, 02:31:04,VALID,997.628,VALID,0,VALID,92.2879,VALID,0,VALID,22.3339,VALID,25,VALID,0.952734,
2012-05-21, 02:32:04,VALID,997.632,VALID,0,VALID,92.4634,VALID,0,VALID,22.3551,VALID,27,VALID,0.819141,
2012-05-21, 02:33:04,VALID,997.659,VALID,0,VALID,92.2421,VALID,0,VALID,22.3339,VALID,11,VALID,0.673828,
2012-05-21, 02:34:04,VALID,997.642,VALID,0,VALID,92.1277,VALID,0,VALID,22.3339,VALID,325,VALID,0.714844,
2012-05-21, 02:35:04,VALID,997.644,VALID,0,VALID,92.204,VALID,0,VALID,22.3339,VALID,347,VALID,0.633203,
2012-05-21, 02:36:04,VALID,997.664,VALID,0,VALID,92.1124,VALID,0,VALID,22.3746,VALID,352,VALID,0.224219,
2012-05-21, 02:37:04,VALID,997.646,VALID,0,VALID,91.9445,VALID,0,VALID,22.3534,VALID,352,VALID,0.130859,
2012-05-21, 02:38:04,VALID,997.603,VALID,0,VALID,91.7614,VALID,0,VALID,22.3746,VALID,14,VALID,0.585938,
2012-05-21, 02:39:04,VALID,997.553,VALID,0,VALID,91.6928,VALID,0.104696,VALID,22.3534,VALID,14,VALID,0.516797,
2012-05-21, 02:40:04,VALID,997.56,VALID,0,VALID,91.6699,VALID,0,VALID,22.3941,VALID,14,VALID,0.59375,
2012-05-21, 02:41:04,VALID,997.523,VALID,0,VALID,91.586,VALID,0,VALID,22.3941,VALID,14,VALID,0.303516,
2012-05-21, 02:42:04,VALID,997.542,VALID,0,VALID,91.5554,VALID,0.104696,VALID,22.3534,VALID,14,VALID,0.187109,
2012-05-21, 02:43:04,VALID,997.503,VALID,0,VALID,91.6012,VALID,0.104696,VALID,22.3534,VALID,14,VALID,0.0328125,
2012-05-21, 02:44:04,VALID,997.466,VALID,0,VALID,91.7309,VALID,0,VALID,22.3339,VALID,14,VALID,0.121484,
2012-05-21, 02:45:04,VALID,997.458,VALID,0,VALID,91.8301,VALID,0,VALID,22.3551,VALID,14,VALID,0.599219,
2012-05-21, 02:46:04,VALID,997.464,VALID,0,VALID,91.8454,VALID,0.104696,VALID,22.3746,VALID,14,VALID,0.565234,
2012-05-21, 02:47:04,VALID,997.453,VALID,0,VALID,91.6775,VALID,0,VALID,22.3534,VALID,14,VALID,0.145313,
2012-05-21, 02:48:04,VALID,997.434,VALID,0,VALID,91.4181,VALID,0,VALID,22.2949,VALID,14,VALID,0.101563,
2012-05-21, 02:49:04,VALID,997.407,VALID,0,VALID,91.5707,VALID,0.104696,VALID,22.2576,VALID,14,VALID,0.0625,
2012-05-21, 02:50:04,VALID,997.436,VALID,0,VALID,91.8988,VALID,0,VALID,22.2559,VALID,14,VALID,0.269922,
2012-05-21, 02:51:04,VALID,997.422,VALID,0,VALID,91.9522,VALID,0.104696,VALID,22.2364,VALID,14,VALID,0.377344,
2012-05-21, 02:52:04,VALID,997.432,VALID,0,VALID,91.998,VALID,0,VALID,22.2559,VALID,14,VALID,0.68125,
2012-05-21, 02:53:04,VALID,997.395,VALID,0,VALID,91.9293,VALID,0,VALID,22.3161,VALID,41,VALID,0.894141,
2012-05-21, 02:54:04,VALID,997.411,VALID,0,VALID,91.8148,VALID,0,VALID,22.3356,VALID,41,VALID,0.811719,
2012-05-21, 02:55:04,VALID,997.42,VALID,0,VALID,91.708,VALID,0,VALID,22.3161,VALID,43,VALID,0.865234,
2012-05-21, 02:56:04,VALID,997.432,VALID,0,VALID,91.647,VALID,0,VALID,22.2949,VALID,43,VALID,0.344141,
2012-05-21, 02:57:04,VALID,997.488,VALID,0,VALID,91.7385,VALID,0.104696,VALID,22.2966,VALID,43,VALID,0.221484,
2012-05-21, 02:58:04,VALID,997.441,VALID,0,VALID,91.9217,VALID,0.104696,VALID,22.2559,VALID,43,VALID,0.525781,
2012-05-21, 02:59:04,VALID,997.464,VALID,0,VALID,92.3337,VALID,0,VALID,22.2381,VALID,43,VALID,0.308984,
2012-05-21, 03:00:04,VALID,997.463,VALID,0,VALID,92.6007,VALID,0.104696,VALID,22.2169,VALID,43,VALID,0.325,
2012-05-21, 03:01:04,VALID,997.485,VALID,0,VALID,92.7762,VALID,0.104696,VALID,22.1974,VALID,43,VALID,0.448828,
2012-05-21, 03:02:04,VALID,997.502,VALID,0,VALID,93.0127,VALID,0,VALID,22.1974,VALID,53,VALID,0.996484,
2012-05-21, 03:03:04,VALID,997.491,VALID,0,VALID,93.0508,VALID,0,VALID,22.2576,VALID,80,VALID,1.09375,
2012-05-21, 03:04:04,VALID,997.453,VALID,0,VALID,93.1424,VALID,0,VALID,22.2381,VALID,70,VALID,1.30547,
2012-05-21, 03:05:04,VALID,997.466,VALID,0,VALID,93.2187,VALID,0,VALID,22.2169,VALID,68,VALID,1.26133,
2012-05-21, 03:06:04,VALID,997.487,VALID,0,VALID,93.2874,VALID,0.104696,VALID,22.2364,VALID,86,VALID,1.62266,
2012-05-21, 03:07:04,VALID,997.512,VALID,0,VALID,93.2797,VALID,0,VALID,22.2364,VALID,90,VALID,1.06914,
2012-05-21, 03:08:04,VALID,997.479,VALID,0,VALID,93.2721,VALID,0.104696,VALID,22.2364,VALID,82,VALID,0.7375,
2012-05-21, 03:09:04,VALID,997.464,VALID,0,VALID,93.295,VALID,0,VALID,22.2169,VALID,67,VALID,0.794141,
2012-05-21, 03:10:04,VALID,997.465,VALID,0,VALID,93.3866,VALID,0,VALID,22.2364,VALID,62,VALID,0.899219,
2012-05-21, 03:11:04,VALID,997.493,VALID,0,VALID,93.3408,VALID,0.104696,VALID,22.2169,VALID,52,VALID,0.795703,
2012-05-21, 03:12:04,VALID,997.501,VALID,0,VALID,93.2263,VALID,0,VALID,22.2186,VALID,41,VALID,0.834766,
2012-05-21, 03:13:04,VALID,997.507,VALID,0,VALID,93.234,VALID,0.104696,VALID,22.1974,VALID,13,VALID,0.9375,
2012-05-21, 03:14:04,VALID,997.541,VALID,0,VALID,93.3331,VALID,0.104696,VALID,22.199,VALID,6,VALID,0.934766,
2012-05-21, 03:15:04,VALID,997.552,VALID,0,VALID,93.3026,VALID,0,VALID,22.1779,VALID,6,VALID,0.854297,
2012-05-21, 03:16:04,VALID,997.573,VALID,0,VALID,93.4018,VALID,0.104696,VALID,22.1584,VALID,6,VALID,0.955859,
2012-05-21, 03:17:04,VALID,997.575,VALID,0,VALID,93.4628,VALID,0,VALID,22.1405,VALID,6,VALID,0.789844,
2012-05-21, 03:18:04,VALID,997.602,VALID,0,VALID,93.6307,VALID,0,VALID,22.1227,VALID,358,VALID,0.985156,
2012-05-21, 03:19:04,VALID,997.6,VALID,0,VALID,93.7604,VALID,0,VALID,22.121,VALID,353,VALID,0.936719,
2012-05-21, 03:20:04,VALID,997.576,VALID,0,VALID,93.7528,VALID,0,VALID,22.16,VALID,346,VALID,0.892187,
2012-05-21, 03:21:04,VALID,997.574,VALID,0,VALID,93.7146,VALID,0,VALID,22.1795,VALID,332,VALID,0.596094,
2012-05-21, 03:22:04,VALID,997.565,VALID,0,VALID,93.6231,VALID,0,VALID,22.1795,VALID,332,VALID,0.423047,
2012-05-21, 03:23:04,VALID,997.553,VALID,0,VALID,93.6002,VALID,0,VALID,22.16,VALID,332,VALID,0.471875,
2012-05-21, 03:24:04,VALID,997.562,VALID,0,VALID,93.501,VALID,0,VALID,22.1405,VALID,332,VALID,0.636328,
2012-05-21, 03:25:04,VALID,997.571,VALID,0,VALID,93.4705,VALID,0,VALID,22.1422,VALID,332,VALID,0.555859,
2012-05-21, 03:26:04,VALID,997.604,VALID,0,VALID,93.4628,VALID,0,VALID,22.1422,VALID,332,VALID,0.505078,
2012-05-21, 03:27:04,VALID,997.565,VALID,0,VALID,93.4476,VALID,0,VALID,22.121,VALID,332,VALID,0.453516,
2012-05-21, 03:28:04,VALID,997.579,VALID,0,VALID,93.356,VALID,0,VALID,22.121,VALID,33,VALID,0.626953,
2012-05-21, 03:29:04,VALID,997.58,VALID,0,VALID,93.2721,VALID,0,VALID,22.1422,VALID,44,VALID,0.823828,
2012-05-21, 03:30:04,VALID,997.564,VALID,0,VALID,93.1729,VALID,0,VALID,22.1617,VALID,44,VALID,0.891406,
2012-05-21, 03:31:04,VALID,997.566,VALID,0,VALID,92.944,VALID,0,VALID,22.1795,VALID,44,VALID,0.767969,
2012-05-21, 03:32:04,VALID,997.559,VALID,0,VALID,92.6999,VALID,0,VALID,22.2007,VALID,36,VALID,0.817187,
2012-05-21, 03:33:04,VALID,997.544,VALID,0,VALID,92.4634,VALID,0,VALID,22.2007,VALID,10,VALID,0.924609,
2012-05-21, 03:34:04,VALID,997.539,VALID,0,VALID,92.41,VALID,0,VALID,22.16,VALID,21,VALID,0.858203,
2012-05-21, 03:35:04,VALID,997.565,VALID,0,VALID,92.4634,VALID,0,VALID,22.16,VALID,29,VALID,1.37812,
2012-05-21, 03:36:04,VALID,997.61,VALID,0,VALID,92.4786,VALID,0,VALID,22.1812,VALID,32,VALID,1.01445,
2012-05-21, 03:37:04,VALID,997.655,VALID,0,VALID,92.41,VALID,0,VALID,22.16,VALID,61,VALID,1.13945,
2012-05-21, 03:38:04,VALID,997.655,VALID,0,VALID,92.4786,VALID,0,VALID,22.2007,VALID,57,VALID,1.09883,
2012-05-21, 03:39:04,VALID,997.694,VALID,0,VALID,92.5931,VALID,0,VALID,22.1812,VALID,53,VALID,1.12539,
2012-05-21, 03:40:04,VALID,997.655,VALID,0,VALID,92.8143,VALID,0,VALID,22.2007,VALID,49,VALID,1.02578,
2012-05-21, 03:41:04,VALID,997.663,VALID,0,VALID,92.9974,VALID,0,VALID,22.1812,VALID,45,VALID,1.25195,
2012-05-21, 03:42:04,VALID,997.657,VALID,0,VALID,93.1577,VALID,0,VALID,22.16,VALID,38,VALID,1.33516,
2012-05-21, 03:43:04,VALID,997.663,VALID,0,VALID,93.3484,VALID,0,VALID,22.1405,VALID,38,VALID,1.08516,
2012-05-21, 03:44:04,VALID,997.624,VALID,0,VALID,93.4247,VALID,0,VALID,22.1422,VALID,36,VALID,0.977734,
2012-05-21, 03:45:04,VALID,997.636,VALID,0,VALID,93.4705,VALID,0,VALID,22.1032,VALID,37,VALID,0.965625,